TimeCST,TemperatureF,Dew PointF,Humidity,Sea Level PressureIn,VisibilityMPH,Wind Direction,Wind SpeedMPH,Gust SpeedMPH,PrecipitationIn,Events,Conditions,WindDirDegrees,DateUTC
12:14 AM,-4.0,-9.4,78,30.19,10.0,NNW,6.9,-,N/A,,Clear,330,2012-12-23 06:14:00
12:34 AM,-4.0,-9.4,78,30.20,10.0,NW,6.9,-,N/A,,Clear,310,2012-12-23 06:34:00
12:54 AM,-2.2,-9.4,71,30.21,10.0,NW,5.8,-,N/A,,Clear,310,2012-12-23 06:54:00
1:14 AM,-5.8,-11.2,77,30.21,10.0,WNW,4.6,-,N/A,,Clear,300,2012-12-23 07:14:00
1:34 AM,-5.8,-9.4,84,30.21,10.0,NW,4.6,-,N/A,,Clear,310,2012-12-23 07:34:00
1:54 AM,-5.8,-11.2,77,30.21,10.0,West,4.6,-,N/A,,Clear,280,2012-12-23 07:54:00
2:15 AM,-5.8,-11.2,77,30.20,10.0,NW,5.8,-,N/A,,Clear,320,2012-12-23 08:15:00
2:34 AM,-7.6,-13.0,77,30.20,10.0,NNW,3.5,-,N/A,,Clear,330,2012-12-23 08:34:00
2:54 AM,-7.6,-13.0,77,30.21,10.0,NNW,3.5,-,N/A,,Clear,340,2012-12-23 08:54:00
3:12 AM,-7.6,-11.2,84,30.21,10.0,WNW,3.5,-,N/A,,Clear,300,2012-12-23 09:12:00
3:34 AM,-5.8,-11.2,77,30.22,10.0,WNW,4.6,-,N/A,,Clear,300,2012-12-23 09:34:00
3:55 AM,-5.8,-11.2,77,30.22,10.0,WNW,3.5,-,N/A,,Clear,300,2012-12-23 09:55:00
4:14 AM,-9.4,-16.6,71,30.21,10.0,NW,5.8,-,N/A,,Clear,320,2012-12-23 10:14:00
4:34 AM,-9.4,-14.8,77,30.21,10.0,NW,4.6,-,N/A,,Clear,320,2012-12-23 10:34:00
4:55 AM,-7.6,-14.8,71,30.21,10.0,NW,3.5,-,N/A,,Clear,310,2012-12-23 10:55:00
5:14 AM,-7.6,-14.8,71,30.20,10.0,NW,4.6,-,N/A,,Clear,310,2012-12-23 11:14:00
5:34 AM,-9.4,-16.6,71,30.20,10.0,NNW,4.6,-,N/A,,Clear,330,2012-12-23 11:34:00
5:54 AM,-11.2,-16.6,77,30.20,10.0,North,3.5,-,N/A,,Clear,360,2012-12-23 11:54:00
6:14 AM,-11.2,-18.4,70,30.20,10.0,Calm,Calm,-,N/A,,Clear,0,2012-12-23 12:14:00
6:34 AM,-9.4,-16.6,71,30.19,10.0,NNE,4.6,-,N/A,,Clear,20,2012-12-23 12:34:00
6:54 AM,-11.2,-16.6,77,30.20,10.0,North,4.6,-,N/A,,Clear,10,2012-12-23 12:54:00
7:14 AM,-11.2,-16.6,77,30.20,10.0,Calm,Calm,-,N/A,,Clear,0,2012-12-23 13:14:00
7:35 AM,-11.2,-16.6,77,30.21,10.0,Calm,Calm,-,N/A,,Clear,0,2012-12-23 13:35:00
7:54 AM,-11.2,-18.4,70,30.21,10.0,Calm,Calm,-,N/A,,Clear,0,2012-12-23 13:54:00
8:14 AM,-13.0,-18.4,77,30.21,10.0,Calm,Calm,-,N/A,,Clear,0,2012-12-23 14:14:00
8:34 AM,-11.2,-18.4,70,30.21,7.0,Calm,Calm,-,N/A,,Clear,0,2012-12-23 14:34:00
8:54 AM,-11.2,-18.4,70,30.21,10.0,Calm,Calm,-,N/A,,Clear,0,2012-12-23 14:54:00
9:14 AM,-9.4,-14.8,77,30.21,10.0,West,4.6,-,N/A,,Clear,280,2012-12-23 15:14:00
9:34 AM,-9.4,-16.6,71,30.21,10.0,Calm,Calm,-,N/A,,Clear,0,2012-12-23 15:34:00
9:54 AM,-9.4,-14.8,77,30.21,10.0,Calm,Calm,-,N/A,,Clear,0,2012-12-23 15:54:00
10:14 AM,-9.4,-14.8,77,30.21,10.0,Calm,Calm,-,N/A,,Clear,0,2012-12-23 16:14:00
10:34 AM,-7.6,-14.8,71,30.21,10.0,Calm,Calm,-,N/A,,Clear,0,2012-12-23 16:34:00
10:54 AM,-5.8,-11.2,77,30.21,10.0,West,4.6,-,N/A,,Clear,280,2012-12-23 16:54:00
11:14 AM,-4.0,-9.4,78,30.22,10.0,West,3.5,-,N/A,,Clear,270,2012-12-23 17:14:00
11:34 AM,-5.8,-11.2,77,30.21,10.0,Calm,Calm,-,N/A,,Clear,0,2012-12-23 17:34:00
11:54 AM,-5.8,-11.2,77,30.21,10.0,West,3.5,-,N/A,,Clear,280,2012-12-23 17:54:00
12:14 PM,-4.0,-9.4,78,30.19,10.0,Calm,Calm,-,N/A,,Clear,0,2012-12-23 18:14:00
12:34 PM,-4.0,-9.4,78,30.20,7.0,West,3.5,-,N/A,,Clear,270,2012-12-23 18:34:00
12:54 PM,-2.2,-7.6,78,30.18,10.0,Calm,Calm,-,N/A,,Clear,0,2012-12-23 18:54:00
1:14 PM,-2.2,-7.6,78,30.18,10.0,WSW,4.6,-,N/A,,Clear,240,2012-12-23 19:14:00
1:34 PM,-0.4,-7.6,72,30.18,10.0,West,3.5,-,N/A,,Clear,270,2012-12-23 19:34:00
1:55 PM,-0.4,-5.8,78,30.18,10.0,West,5.8,-,N/A,,Clear,270,2012-12-23 19:55:00
2:14 PM,-0.4,-5.8,78,30.18,10.0,West,6.9,-,N/A,,Clear,270,2012-12-23 20:14:00
2:34 PM,-0.4,-5.8,78,-9999,10.0,West,4.6,-,N/A,,Clear,280,2012-12-23 20:34:00
2:55 PM,-0.4,-5.8,78,30.17,10.0,West,6.9,-,N/A,,Clear,270,2012-12-23 20:55:00
3:14 PM,-0.4,-5.8,78,30.17,10.0,West,4.6,-,N/A,,Clear,260,2012-12-23 21:14:00
3:34 PM,1.4,-5.8,72,30.17,10.0,West,5.8,-,N/A,,Clear,260,2012-12-23 21:34:00
3:54 PM,1.4,-4.0,78,30.17,10.0,West,6.9,-,N/A,,Clear,270,2012-12-23 21:54:00
4:14 PM,1.4,-4.0,78,30.18,10.0,West,6.9,-,N/A,,Clear,260,2012-12-23 22:14:00
4:34 PM,-0.4,-5.8,78,30.18,10.0,West,9.2,-,N/A,,Clear,270,2012-12-23 22:34:00
4:54 PM,-0.4,-5.8,78,30.18,10.0,West,6.9,-,N/A,,Clear,280,2012-12-23 22:54:00
5:14 PM,-0.4,-7.6,72,30.17,10.0,WNW,4.6,-,N/A,,Clear,290,2012-12-23 23:14:00
5:34 PM,-2.2,-7.6,78,30.17,10.0,West,6.9,-,N/A,,Clear,270,2012-12-23 23:34:00
5:54 PM,-0.4,-7.6,72,30.17,10.0,West,8.1,-,N/A,,Clear,270,2012-12-23 23:54:00
6:14 PM,-0.4,-7.6,72,30.18,10.0,West,6.9,-,N/A,,Clear,280,2012-12-24 00:14:00
6:34 PM,-0.4,-5.8,78,30.18,10.0,West,9.2,-,N/A,,Clear,280,2012-12-24 00:34:00
6:54 PM,-0.4,-7.6,72,30.18,10.0,West,8.1,-,N/A,,Clear,280,2012-12-24 00:54:00
7:04 PM,-2.2,-7.6,78,30.18,10.0,WNW,9.2,-,N/A,,Clear,290,2012-12-24 01:04:00
7:34 PM,-2.2,-7.6,78,30.18,10.0,WNW,6.9,-,N/A,,Clear,300,2012-12-24 01:34:00
7:54 PM,-2.2,-7.6,78,30.17,10.0,NW,6.9,-,N/A,,Clear,310,2012-12-24 01:54:00
8:15 PM,-2.2,-7.6,78,30.16,10.0,NW,9.2,-,N/A,,Clear,320,2012-12-24 02:15:00
8:54 PM,-2.2,-7.6,78,30.15,10.0,NNW,6.9,-,N/A,,Clear,340,2012-12-24 02:54:00
9:14 PM,-2.2,-9.4,71,30.15,10.0,NNW,5.8,-,N/A,,Clear,340,2012-12-24 03:14:00
9:35 PM,-4.0,-9.4,78,30.15,10.0,North,6.9,-,N/A,,Clear,350,2012-12-24 03:35:00
9:54 PM,-5.8,-11.2,77,30.15,10.0,NNW,4.6,-,N/A,,Clear,340,2012-12-24 03:54:00
10:14 PM,-5.8,-11.2,77,30.15,10.0,North,5.8,-,N/A,,Clear,350,2012-12-24 04:14:00
10:34 PM,-5.8,-11.2,77,30.15,10.0,NNW,5.8,-,N/A,,Clear,340,2012-12-24 04:34:00
10:54 PM,-5.8,-11.2,77,30.16,10.0,NNW,5.8,-,N/A,,Clear,340,2012-12-24 04:54:00
11:14 PM,-5.8,-11.2,77,30.16,10.0,NW,3.5,-,N/A,,Clear,320,2012-12-24 05:14:00
11:34 PM,-5.8,-11.2,77,30.16,10.0,NW,4.6,-,N/A,,Clear,320,2012-12-24 05:34:00
11:54 PM,-7.6,-13.0,77,30.16,10.0,NW,4.6,-,N/A,,Clear,310,2012-12-24 05:54:00